CZ-2C R/B

Last updated on Wed Jul 02 2025 00:02:15 GMT+0000 (Coordinated Universal Time)

1 52794U 22058K 25182.19241866 .00012228 00000+0 29012-3 0 9990 2 52794 50.1927 156.6084 0055507 234.2313 125.3483 15.40496530171218
UTC large
Height (km)
Speed (km/s)
/
Latitude / Longitude
Inclination (degrees)
Orbital Period (minutes)
Azimuth
Elevation
Range (km)
Doppler Factor

Next 0 passes for location: London (51.5072 / 0.1276)

Sorry there are no passes over London.